Terminal Aerodrome Forecast
Issued by NWS

Home | Current Version | Previous Version | Text Only | Print | Product List | Glossary On
Versions: 1 2 3 4 5 6 7 8 9 10 11 12 13 14 15 16 17 18 19 20 21 22 23 24
000
FTUS43 KPAH 051720
TAFOWB
TAF
KOWB 051720Z 0518/0618 22010KT P6SM SCT070
      TEMPO 0518/0522 SCT040 BKN070
     FM060100 18005KT P6SM SCT100
     FM061500 20008KT P6SM SCT070 BKN150=

USA.gov is the U.S. government's official web portal to all federal, state and local government web resources and services.